Portada
METAR-TAF:

METAR-TAF

Aeroports :

Hartford, Connecticut, Estats Units d'Amèrica

latitud: 41-44-06N, longitud: 072-39-06W, altitud: 5 m

Observació

L'informe es va fer fa 33 minuts, a les 06:53 UTC
Vent calma
Temperatura 7°C
Humitat 76%
Pressió 1021 hPa
Visibilitat: 16.1 km
Cel cobert a una alçada de 4900 ft
pluja

METAR: KHFD 260653Z AUTO 00000KT 10SM -RA OVC049 07/03 A3016 RMK AO2 RAE08B49 SLP212 P0000 T00670028

Hora: 02:26 (07:26 UTC)


TAF: manca

Observacions i pronòstics meteorològics de més de 4000 aeroports (METAR i TAF).

Les estacions disponibles són els punts grocs i vermells al mapa.

Posi el ratolí al punt desitjat per veure el nom de l'estació.

Feu clic per veure les observacions i els pronòstics meteorològics.

Per canviar el mapa: feu clic els botons verds amb una creu de color negre per apropar; al botó verd amb un guió per allunyar la imatge; o en les fletxes verdes per a mapes adjacents.


METAR-TAF: